SAS1522 EGPH-EKCH

Flight info

Callsign SAS1522
Flight time N/A
Altitude 35000
Route GRICE P600 ASNUD DCT ELSAN DCT VAXIT DCT ABINO T56 TESPI
Aircraft MD82/M-SDFGIRWY/S

Departure

Time N/A
Airport Edinburgh Airport (EGPH)

Arrival

Time 2026-04-30 18:22
Airport Copenhagen Kastrup Airport (EKCH)
Time Latitude Longitude Altitude Speed Heading
2026-04-30 17:39 56.48659 5.67456 35448 ft 434 kts 99°
2026-04-30 17:42 56.43405 6.20403 35450 ft 433 kts 100°
2026-04-30 17:43 56.40660 6.46613 35449 ft 433 kts 100°
2026-04-30 17:44 56.37304 6.78492 35455 ft 432 kts 100°
2026-04-30 17:47 56.31978 7.26426 35458 ft 434 kts 100°
2026-04-30 17:48 56.27818 7.63550 35458 ft 433 kts 101°
2026-04-30 17:50 56.22971 8.04700 35467 ft 434 kts 100°
2026-04-30 17:52 56.19299 8.35614 35457 ft 433 kts 101°
2026-04-30 17:54 56.13458 8.82310 35263 ft 439 kts 101°
2026-04-30 17:55 56.10909 9.02819 33829 ft 420 kts 100°
2026-04-30 17:56 56.08265 9.23007 32556 ft 416 kts 101°
2026-04-30 17:57 56.06362 9.37500 31653 ft 411 kts 101°
2026-04-30 17:58 56.04303 9.52306 30761 ft 407 kts 107°
2026-04-30 17:59 56.00244 9.71013 29446 ft 400 kts 108°
2026-04-30 18:00 55.96517 9.89399 28133 ft 390 kts 107°
2026-04-30 18:00 55.93816 10.02965 27186 ft 383 kts 107°
2026-04-30 18:01 55.92041 10.11801 26579 ft 379 kts 107°
2026-04-30 18:02 55.89355 10.24935 25691 ft 372 kts 107°
2026-04-30 18:02 55.86657 10.37803 24828 ft 366 kts 107°
2026-04-30 18:03 55.84039 10.50359 23978 ft 358 kts 107°
2026-04-30 18:04 55.81460 10.62768 22584 ft 352 kts 107°
2026-04-30 18:05 55.78121 10.78786 20729 ft 342 kts 107°
2026-04-30 18:06 55.74815 10.94427 18593 ft 335 kts 108°
2026-04-30 18:07 55.71633 11.09192 16375 ft 326 kts 108°
2026-04-30 18:08 55.69251 11.20293 14768 ft 319 kts 108°
2026-04-30 18:09 55.66267 11.34037 12597 ft 295 kts 108°
2026-04-30 18:10 55.63590 11.46470 10549 ft 279 kts 109°
2026-04-30 18:11 55.60919 11.58736 8542 ft 264 kts 109°
2026-04-30 18:11 55.59054 11.67043 7371 ft 258 kts 109°
2026-04-30 18:12 55.57108 11.75778 6117 ft 257 kts 109°
2026-04-30 18:13 55.55779 11.81743 5318 ft 256 kts 109°
2026-04-30 18:13 55.54185 11.88888 4568 ft 256 kts 109°
2026-04-30 18:14 55.52719 11.95461 4034 ft 254 kts 109°
2026-04-30 18:15 55.50770 12.04205 3500 ft 255 kts 109°
2026-04-30 18:15 55.48968 12.12220 3066 ft 236 kts 109°
2026-04-30 18:16 55.47835 12.17280 2997 ft 234 kts 109°
2026-04-30 18:16 55.47051 12.22800 2887 ft 237 kts 87°
2026-04-30 18:17 55.47070 12.25713 2836 ft 238 kts 85°
2026-04-30 18:17 55.47109 12.28562 2751 ft 227 kts 85°
2026-04-30 18:17 55.47176 12.33970 2427 ft 215 kts 84°
2026-04-30 18:18 55.47205 12.36304 2256 ft 213 kts 84°
2026-04-30 18:18 55.47271 12.38903 2024 ft 210 kts 77°
2026-04-30 18:18 55.47452 12.40573 1885 ft 208 kts 72°
2026-04-30 18:18 55.48118 12.43629 1570 ft 200 kts 41°
2026-04-30 18:19 55.49188 12.44982 1711 ft 179 kts 32°
2026-04-30 18:19 55.50136 12.46399 1799 ft 184 kts 38°
2026-04-30 18:19 55.51168 12.47951 1910 ft 201 kts 35°
2026-04-30 18:19 55.52203 12.49530 1923 ft 196 kts 38°
2026-04-30 18:20 55.53218 12.51127 1653 ft 188 kts 36°
2026-04-30 18:20 55.54193 12.52608 1360 ft 182 kts 37°
2026-04-30 18:20 55.55042 12.53920 1164 ft 170 kts 37°
2026-04-30 18:20 55.55814 12.55119 967 ft 155 kts 37°
2026-04-30 18:21 55.56357 12.55942 804 ft 160 kts 37°
2026-04-30 18:21 55.57490 12.57633 477 ft 156 kts 39°
2026-04-30 18:21 55.58254 12.58869 319 ft 143 kts 38°
2026-04-30 18:21 55.59006 12.60021 137 ft 146 kts 39°
2026-04-30 18:22 55.59733 12.61148 22 ft 136 kts 39°
2026-04-30 18:22 55.60567 12.62430 21 ft 61 kts 41°
2026-04-30 18:22 55.60786 12.62746 20 ft 36 kts 32°
2026-04-30 18:23 55.60991 12.62873 18 ft 18 kts 13°
2026-04-30 18:23 55.61117 12.62933 18 ft 19 kts 30°
2026-04-30 18:23 55.61225 12.63073 18 ft 19 kts 41°
2026-04-30 18:23 55.61328 12.63233 18 ft 20 kts 41°
2026-04-30 18:24 55.61529 12.63545 19 ft 17 kts 41°
2026-04-30 18:24 55.61619 12.63685 18 ft 18 kts 41°
2026-04-30 18:24 55.61716 12.63834 19 ft 19 kts 41°
2026-04-30 18:25 55.61810 12.63979 18 ft 16 kts 41°
2026-04-30 18:25 55.61996 12.64176 18 ft 12 kts 25°
2026-04-30 18:25 55.62061 12.64231 20 ft 8 kts 25°
2026-04-30 18:26 55.62130 12.64289 17 ft 5 kts 25°
2026-04-30 18:26 55.62140 12.64297 17 ft 0 kts 25°
2026-04-30 18:26 55.62140 12.64298 17 ft 1 kts 25°
2026-04-30 18:27 55.62208 12.64354 16 ft 11 kts 25°
2026-04-30 18:27 55.62251 12.64406 18 ft 5 kts 57°
2026-04-30 18:28 55.62308 12.64656 19 ft 13 kts 67°
2026-04-30 18:28 55.62346 12.64807 20 ft 13 kts 77°
2026-04-30 18:28 55.62279 12.65101 18 ft 12 kts 90°
2026-04-30 18:29 55.62333 12.65204 18 ft 12 kts
2026-04-30 18:29 55.62525 12.65199 18 ft 13 kts 359°
2026-04-30 18:30 55.62673 12.65190 19 ft 7 kts 356°
2026-04-30 18:30 55.62720 12.65184 18 ft 0 kts 356°